Weather History for Estherville, IA

Change the Weather History Date:

Saturday, October 29, 2011

  Actual Average Record
Temperature  
Mean Temperature 38 °F 42 °F  
Max Temperature 56 °F 53 °F 79 °F (1950)
Min Temperature 20 °F 32 °F 14 °F (1967)
Degree Days  
Heating Degree Days 27 23  
Month to date heating degree days 355 493  
Since 1 July heating degree days 575 701  
Cooling Degree Days 0 0  
Month to date cooling degree days 21 4  
Year to date cooling degree days 767 591  
Moisture  
Dew Point 20 °F    
Average Humidity 51    
Maximum Humidity 77    
Minimum Humidity 24    
Precipitation  
Precipitation 0.00 in 0.04 in 1.24 in (1991)
Month to date precipitation 0.26 2.11  
Year to date precipitation 18.97  
Sea Level Pressure  
Sea Level Pressure 30.01 in    
Wind  
Wind Speed 10 mph (South)    
Max Wind Speed 22 mph    
Max Gust Speed 28 mph    
Visibility 10 miles    
Events      
T = Trace of Precipitation, MM = Missing Value Source: NWS Daily Summary

Daily Weather History Graph

Daily Weather History Graph

Search for Another Location

Airport:

Trip Planner

Search our weather history database for the weather conditions in past years. The results will help you decide how hot, cold, wet, or windy it might be!

Date:

Astronomy

Oct. 29, 2011 Rise Set
Actual Time 7:50 AM CDT 6:14 PM CDT
Civil Twilight 7:20 AM CDT 6:44 PM CDT
Nautical Twilight 6:46 AM CDT 7:17 PM CDT
Astronomical Twilight 6:13 AM CDT 7:50 PM CDT
Moon 11:18 AM CDT (10/29) 8:33 PM CDT (10/29)
Length of Visible Light 11h 23m
Length of Day
10h 24m
Waxing Crescent, 12% of the Moon is Illuminated
Oct 29
Waxing Crescent
Nov 2
First Quarter
Nov 10
Full
Nov 18
Last Quarter
Nov 25
New

Hourly Weather History & Observations

Time (CDT) Temp. Windchill Dew Point Humidity Pressure Visibility Wind Dir Wind Speed Gust Speed Precip Events Conditions
1:52 AM 28.0 °F 20.0 °F 18.0 °F 66% 30.10 in 10.0 mi West 8.1 mph - N/A   Clear
2:52 AM 25.0 °F 17.1 °F 16.0 °F 69% 30.09 in 10.0 mi West 6.9 mph - N/A   Clear
3:52 AM 25.0 °F - 17.1 °F 72% 30.09 in 10.0 mi North - - N/A   Clear
4:52 AM 21.9 °F 15.7 °F 16.0 °F 78% 30.09 in 10.0 mi West 4.6 mph - N/A   Clear
5:52 AM 24.1 °F 16.0 °F 17.1 °F 75% 30.10 in 10.0 mi WSW 6.9 mph - N/A   Clear
6:52 AM 23.0 °F 14.7 °F 16.0 °F 74% 30.11 in 10.0 mi WSW 6.9 mph - N/A   Clear
7:52 AM 19.9 °F - 14.0 °F 78% 30.11 in 10.0 mi Calm Calm - N/A   Clear
8:52 AM 25.0 °F - 18.0 °F 75% 30.12 in 10.0 mi Calm Calm - N/A   Clear
9:52 AM 37.0 °F 34.5 °F 23.0 °F 57% 30.10 in 10.0 mi South 3.5 mph - N/A   Clear
10:52 AM 46.9 °F - 25.0 °F 42% 30.09 in 10.0 mi South 8.1 mph - N/A   Clear
11:52 AM 50.0 °F - 23.0 °F 35% 30.07 in 10.0 mi South 11.5 mph - N/A   Clear
12:52 PM 53.1 °F - 19.9 °F 27% 30.04 in 10.0 mi South 13.8 mph - N/A   Clear
1:52 PM 53.1 °F - 19.0 °F 26% 29.99 in 10.0 mi SSE 12.7 mph - N/A   Clear
2:52 PM 55.0 °F - 19.9 °F 25% 29.96 in 10.0 mi SSE 13.8 mph 21.9 mph N/A   Clear
3:52 PM 54.0 °F - 19.9 °F 26% 29.94 in 10.0 mi SSE 17.3 mph 26.5 mph N/A   Clear
4:52 PM 54.0 °F - 19.9 °F 26% 29.92 in 10.0 mi SSE 17.3 mph - N/A   Clear
5:52 PM 53.1 °F - 21.9 °F 30% 29.91 in 10.0 mi SE 13.8 mph - N/A   Clear
6:52 PM 48.0 °F - 23.0 °F 37% 29.91 in 10.0 mi SE 10.4 mph - N/A   Clear
7:52 PM 46.9 °F - 21.9 °F 37% 29.93 in 10.0 mi SE 10.4 mph - N/A   Clear
8:52 PM 46.9 °F - 23.0 °F 39% 29.91 in 10.0 mi SE 11.5 mph - N/A   Mostly Cloudy
9:52 PM 48.0 °F - 23.0 °F 37% 29.88 in 10.0 mi SE 15.0 mph - N/A   Mostly Cloudy
10:52 PM 46.9 °F - 23.0 °F 39% 29.87 in 10.0 mi SSE 10.4 mph - N/A   Overcast
11:52 PM 48.0 °F - 23.0 °F 37% 29.83 in 10.0 mi SSE 12.7 mph - N/A   Overcast